UAL1261 KEWR-KBNA

Flight info

Callsign UAL1261
Flight time 2h 0m
Altitude 36000
Route PARKE J6 LRP/N0468F320 J6 MRB/N0455F380 J6 HVQ Q68 YOCKY CUTRR PASLY5
Aircraft A319/M-SDE3FGHIRWY/LB1

Departure

Time 2026-05-06 15:38
Airport Newark Liberty International Airport (KEWR)

Arrival

Time 2026-05-06 17:38
Airport Nashville International Airport (KBNA)
Time Latitude Longitude Altitude Speed Heading
2026-05-06 15:00 40.68297 -74.18297 22 ft 0 kts
2026-05-06 15:22 40.68293 -74.18298 22 ft 3 kts
2026-05-06 15:22 40.68267 -74.18302 22 ft 4 kts 15°
2026-05-06 15:22 40.68245 -74.18317 22 ft 4 kts 60°
2026-05-06 15:23 40.68240 -74.18338 22 ft 1 kts 95°
2026-05-06 15:23 40.68240 -74.18342 22 ft 0 kts 95°
2026-05-06 15:26 40.68240 -74.18341 22 ft 1 kts 95°
2026-05-06 15:26 40.68239 -74.18323 22 ft 3 kts 95°
2026-05-06 15:27 40.68236 -74.18281 22 ft 6 kts 95°
2026-05-06 15:27 40.68233 -74.18221 22 ft 7 kts 95°
2026-05-06 15:27 40.68237 -74.18147 22 ft 9 kts 83°
2026-05-06 15:27 40.68235 -74.18059 22 ft 10 kts 95°
2026-05-06 15:28 40.68222 -74.17958 22 ft 12 kts 110°
2026-05-06 15:28 40.68184 -74.17849 22 ft 14 kts 115°
2026-05-06 15:28 40.68164 -74.17725 22 ft 15 kts 54°
2026-05-06 15:28 40.68254 -74.17651 22 ft 16 kts 25°
2026-05-06 15:29 40.68353 -74.17589 24 ft 13 kts 26°
2026-05-06 15:29 40.68438 -74.17534 24 ft 14 kts 26°
2026-05-06 15:29 40.68531 -74.17473 24 ft 16 kts 26°
2026-05-06 15:29 40.68621 -74.17414 23 ft 14 kts 26°
2026-05-06 15:30 40.68714 -74.17355 23 ft 16 kts 24°
2026-05-06 15:30 40.68798 -74.17304 23 ft 13 kts 26°
2026-05-06 15:30 40.68885 -74.17248 22 ft 15 kts 26°
2026-05-06 15:30 40.68984 -74.17187 22 ft 17 kts 25°
2026-05-06 15:31 40.69080 -74.17126 22 ft 15 kts 25°
2026-05-06 15:31 40.69176 -74.17066 22 ft 16 kts 26°
2026-05-06 15:31 40.69280 -74.16998 23 ft 17 kts 26°
2026-05-06 15:32 40.69499 -74.16858 24 ft 19 kts 26°
2026-05-06 15:32 40.69619 -74.16782 23 ft 15 kts 26°
2026-05-06 15:32 40.69715 -74.16721 22 ft 5 kts 26°
2026-05-06 15:32 40.69716 -74.16721 22 ft 0 kts 26°
2026-05-06 15:34 40.69719 -74.16718 22 ft 2 kts 26°
2026-05-06 15:34 40.69741 -74.16704 22 ft 5 kts 25°
2026-05-06 15:34 40.69782 -74.16679 21 ft 8 kts 25°
2026-05-06 15:35 40.69837 -74.16645 21 ft 10 kts 25°
2026-05-06 15:35 40.69901 -74.16604 22 ft 11 kts 25°
2026-05-06 15:35 40.69974 -74.16559 21 ft 12 kts 25°
2026-05-06 15:35 40.70044 -74.16513 21 ft 9 kts 34°
2026-05-06 15:36 40.70061 -74.16433 20 ft 11 kts 106°
2026-05-06 15:36 40.69993 -74.16387 19 ft 13 kts 196°
2026-05-06 15:36 40.69979 -74.16396 19 ft 0 kts 206°
2026-05-06 15:36 40.69971 -74.16401 19 ft 7 kts 205°
2026-05-06 15:37 40.69763 -74.16532 21 ft 62 kts 206°
2026-05-06 15:37 40.69434 -74.16742 23 ft 97 kts 205°
2026-05-06 15:37 40.68663 -74.17237 26 ft 148 kts 206°
2026-05-06 15:37 40.67717 -74.17836 590 ft 149 kts 205°
2026-05-06 15:38 40.66697 -74.18063 1220 ft 155 kts 176°
2026-05-06 15:38 40.65627 -74.17826 1892 ft 157 kts 173°
2026-05-06 15:38 40.64563 -74.17866 2533 ft 154 kts 200°
2026-05-06 15:38 40.63687 -74.18705 3085 ft 164 kts 231°
2026-05-06 15:39 40.63126 -74.20126 3502 ft 188 kts 244°
2026-05-06 15:39 40.62841 -74.21976 3900 ft 222 kts 261°
2026-05-06 15:39 40.63130 -74.24120 4555 ft 249 kts 278°
2026-05-06 15:39 40.63453 -74.26340 5475 ft 252 kts 271°
2026-05-06 15:40 40.63596 -74.28640 6451 ft 254 kts 268°
2026-05-06 15:40 40.63685 -74.31004 7455 ft 257 kts 267°
2026-05-06 15:40 40.63776 -74.33365 8376 ft 261 kts 268°
2026-05-06 15:40 40.63888 -74.35772 9274 ft 265 kts 268°
2026-05-06 15:41 40.64016 -74.38187 10127 ft 270 kts 268°
2026-05-06 15:41 40.64157 -74.40756 10504 ft 293 kts 268°
2026-05-06 15:41 40.64322 -74.43574 10770 ft 317 kts 269°
2026-05-06 15:41 40.64500 -74.46540 11226 ft 330 kts 269°
2026-05-06 15:42 40.64695 -74.49576 11913 ft 335 kts 269°
2026-05-06 15:42 40.64902 -74.52647 12655 ft 338 kts 269°
2026-05-06 15:42 40.65112 -74.55696 13384 ft 340 kts 269°
2026-05-06 15:42 40.65323 -74.58810 14097 ft 342 kts 269°
2026-05-06 15:43 40.65525 -74.61937 14812 ft 344 kts 270°
2026-05-06 15:43 40.65723 -74.65091 15516 ft 347 kts 270°
2026-05-06 15:43 40.65920 -74.68263 16189 ft 349 kts 270°
2026-05-06 15:43 40.66118 -74.71464 16852 ft 352 kts 270°
2026-05-06 15:44 40.66318 -74.74685 17516 ft 354 kts 270°
2026-05-06 15:44 40.66517 -74.77924 18151 ft 357 kts 270°
2026-05-06 15:44 40.66716 -74.81193 18784 ft 359 kts 271°
2026-05-06 15:44 40.66920 -74.84481 19403 ft 362 kts 271°
2026-05-06 15:45 40.67127 -74.87805 20007 ft 365 kts 271°
2026-05-06 15:45 40.67331 -74.91148 20574 ft 368 kts 271°
2026-05-06 15:45 40.67532 -74.94518 21104 ft 371 kts 271°
2026-05-06 15:45 40.67734 -74.97914 21608 ft 374 kts 271°
2026-05-06 15:46 40.67939 -75.01343 22093 ft 376 kts 271°
2026-05-06 15:46 40.67951 -75.04780 22564 ft 376 kts 262°
2026-05-06 15:46 40.67489 -75.08167 23013 ft 376 kts 253°
2026-05-06 15:46 40.66559 -75.11394 23449 ft 379 kts 244°
2026-05-06 15:47 40.65241 -75.14417 23868 ft 382 kts 240°
2026-05-06 15:47 40.63862 -75.17426 24283 ft 385 kts 240°
2026-05-06 15:47 40.62474 -75.20457 24699 ft 388 kts 240°
2026-05-06 15:47 40.61082 -75.23507 25134 ft 389 kts 240°
2026-05-06 15:48 40.59687 -75.26569 25561 ft 391 kts 240°
2026-05-06 15:48 40.58285 -75.29641 25974 ft 392 kts 240°
2026-05-06 15:48 40.56874 -75.32718 26399 ft 394 kts 241°
2026-05-06 15:48 40.55459 -75.35799 26800 ft 395 kts 241°
2026-05-06 15:49 40.54036 -75.38903 27182 ft 396 kts 241°
2026-05-06 15:49 40.52611 -75.42003 27570 ft 396 kts 241°
2026-05-06 15:49 40.51185 -75.45105 27928 ft 397 kts 241°
2026-05-06 15:49 40.49770 -75.48186 28254 ft 399 kts 242°
2026-05-06 15:50 40.48334 -75.51312 28594 ft 400 kts 242°
2026-05-06 15:50 40.46889 -75.54438 28940 ft 401 kts 242°
2026-05-06 15:50 40.45438 -75.57579 29260 ft 402 kts 242°
2026-05-06 15:50 40.43988 -75.60718 29595 ft 403 kts 242°
2026-05-06 15:51 40.42536 -75.63860 30045 ft 400 kts 242°
2026-05-06 15:51 40.41097 -75.66972 30515 ft 397 kts 242°
2026-05-06 15:51 40.39665 -75.70059 30979 ft 395 kts 243°
2026-05-06 15:51 40.38239 -75.73127 31414 ft 393 kts 243°
2026-05-06 15:52 40.36816 -75.76179 31817 ft 391 kts 243°
2026-05-06 15:52 40.35399 -75.79213 32226 ft 390 kts 243°
2026-05-06 15:52 40.33988 -75.82240 32643 ft 388 kts 243°
2026-05-06 15:52 40.32585 -75.85254 33089 ft 386 kts 244°
2026-05-06 15:53 40.31189 -75.88245 33529 ft 384 kts 244°
2026-05-06 15:53 40.29802 -75.91222 33964 ft 381 kts 244°
2026-05-06 15:53 40.28425 -75.94178 34393 ft 379 kts 245°
2026-05-06 15:53 40.27047 -75.97126 34817 ft 378 kts 245°
2026-05-06 15:54 40.25675 -76.00052 35212 ft 377 kts 245°
2026-05-06 15:54 40.24303 -76.02976 35591 ft 376 kts 245°
2026-05-06 15:54 40.22958 -76.05844 35836 ft 375 kts 245°
2026-05-06 15:54 40.21598 -76.08742 35887 ft 372 kts 245°
2026-05-06 15:55 40.18896 -76.14486 35887 ft 370 kts 245°
2026-05-06 15:55 40.16201 -76.20224 35897 ft 370 kts 245°
2026-05-06 15:56 40.13500 -76.25955 35895 ft 370 kts 245°
2026-05-06 15:56 40.10806 -76.31678 35897 ft 370 kts 246°
2026-05-06 15:57 40.08148 -76.37428 35895 ft 369 kts 246°
2026-05-06 15:57 40.05506 -76.43178 35894 ft 369 kts 246°
2026-05-06 15:58 40.02863 -76.48916 35883 ft 369 kts 246°
2026-05-06 15:58 40.00215 -76.54649 35870 ft 369 kts 245°
2026-05-06 15:59 39.97561 -76.60366 35863 ft 369 kts 246°
2026-05-06 15:59 39.94897 -76.66080 35857 ft 369 kts 246°
2026-05-06 16:00 39.92255 -76.71752 35860 ft 369 kts 246°
2026-05-06 16:00 39.89592 -76.77457 35864 ft 369 kts 246°
2026-05-06 16:01 39.86930 -76.83161 35867 ft 369 kts 246°
2026-05-06 16:01 39.84260 -76.88861 35864 ft 369 kts 246°
2026-05-06 16:02 39.81578 -76.94564 35860 ft 370 kts 246°
2026-05-06 16:02 39.78895 -77.00262 35863 ft 369 kts 246°
2026-05-06 16:03 39.76217 -77.05950 35867 ft 368 kts 246°
2026-05-06 16:03 39.73544 -77.11624 35869 ft 368 kts 246°
2026-05-06 16:04 39.70858 -77.17291 35883 ft 368 kts 245°
2026-05-06 16:04 39.68198 -77.22901 35886 ft 367 kts 245°
2026-05-06 16:05 39.65522 -77.28539 35884 ft 367 kts 245°
2026-05-06 16:05 39.62852 -77.34166 35882 ft 366 kts 245°
2026-05-06 16:06 39.60175 -77.39785 35883 ft 366 kts 245°
2026-05-06 16:06 39.57498 -77.45387 35882 ft 365 kts 245°
2026-05-06 16:07 39.54828 -77.50987 35882 ft 365 kts 245°
2026-05-06 16:07 39.52154 -77.56585 35880 ft 365 kts 245°
2026-05-06 16:08 39.49493 -77.62133 35880 ft 365 kts 245°
2026-05-06 16:08 39.46811 -77.67709 35868 ft 364 kts 245°
2026-05-06 16:09 39.44131 -77.73272 35878 ft 364 kts 245°
2026-05-06 16:09 39.41447 -77.78828 35863 ft 364 kts 245°
2026-05-06 16:10 39.38768 -77.84382 35857 ft 364 kts 245°
2026-05-06 16:10 39.36333 -77.90068 35853 ft 360 kts 249°
2026-05-06 16:11 39.34116 -77.95864 35843 ft 360 kts 250°
2026-05-06 16:11 39.31884 -78.01658 35846 ft 361 kts 249°
2026-05-06 16:12 39.29600 -78.07432 35850 ft 361 kts 249°
2026-05-06 16:12 39.27298 -78.13186 35851 ft 361 kts 249°
2026-05-06 16:13 39.25007 -78.18899 35848 ft 361 kts 249°
2026-05-06 16:13 39.22709 -78.24642 35852 ft 360 kts 249°
2026-05-06 16:14 39.20414 -78.30377 35853 ft 360 kts 249°
2026-05-06 16:14 39.18114 -78.36110 35849 ft 360 kts 249°
2026-05-06 16:15 39.15805 -78.41845 35861 ft 360 kts 249°
2026-05-06 16:15 39.13494 -78.47558 35851 ft 359 kts 249°
2026-05-06 16:16 39.11189 -78.53266 35858 ft 359 kts 249°
2026-05-06 16:16 39.08879 -78.58978 35858 ft 359 kts 249°
2026-05-06 16:17 39.06567 -78.64687 35861 ft 360 kts 249°
2026-05-06 16:17 39.04246 -78.70400 35866 ft 361 kts 249°
2026-05-06 16:18 39.01932 -78.76073 35869 ft 361 kts 249°
2026-05-06 16:18 38.99595 -78.81794 35864 ft 361 kts 248°
2026-05-06 16:19 38.97261 -78.87509 35858 ft 361 kts 248°
2026-05-06 16:19 38.94927 -78.93214 35856 ft 361 kts 248°
2026-05-06 16:20 38.92595 -78.98920 35852 ft 360 kts 248°
2026-05-06 16:20 38.90255 -79.04617 35845 ft 361 kts 248°
2026-05-06 16:21 38.87909 -79.10310 35845 ft 361 kts 248°
2026-05-06 16:21 38.85559 -79.16011 35847 ft 361 kts 248°
2026-05-06 16:22 38.83647 -79.21829 35844 ft 353 kts 260°
2026-05-06 16:22 38.82561 -79.27967 35839 ft 353 kts 260°
2026-05-06 16:23 38.81462 -79.34092 35853 ft 352 kts 259°
2026-05-06 16:23 38.80352 -79.40214 35858 ft 352 kts 259°
2026-05-06 16:24 38.79246 -79.46324 35864 ft 352 kts 260°
2026-05-06 16:24 38.78140 -79.52446 35866 ft 352 kts 260°
2026-05-06 16:25 38.77031 -79.58565 35874 ft 353 kts 260°
2026-05-06 16:25 38.75918 -79.64687 35881 ft 353 kts 260°
2026-05-06 16:26 38.74800 -79.70819 35890 ft 353 kts 260°
2026-05-06 16:26 38.73674 -79.76936 35896 ft 353 kts 259°
2026-05-06 16:27 38.72731 -79.82014 35901 ft 353 kts 259°
2026-05-06 16:27 38.71596 -79.88124 35900 ft 353 kts 259°
2026-05-06 16:28 38.70466 -79.94226 35898 ft 352 kts 259°
2026-05-06 16:28 38.69336 -80.00337 35900 ft 353 kts 259°
2026-05-06 16:29 38.68202 -80.06443 35915 ft 352 kts 259°
2026-05-06 16:29 38.67061 -80.12533 35925 ft 352 kts 259°
2026-05-06 16:30 38.66112 -80.17587 35924 ft 351 kts 259°
2026-05-06 16:30 38.64773 -80.24694 35925 ft 351 kts 259°
2026-05-06 16:31 38.63634 -80.30765 35927 ft 351 kts 259°
2026-05-06 16:31 38.62490 -80.36832 35926 ft 351 kts 259°
2026-05-06 16:32 38.61345 -80.42850 35931 ft 350 kts 259°
2026-05-06 16:32 38.60188 -80.48906 35930 ft 350 kts 259°
2026-05-06 16:33 38.59032 -80.54939 35922 ft 349 kts 259°
2026-05-06 16:34 38.57299 -80.63984 35917 ft 349 kts 259°
2026-05-06 16:34 38.56137 -80.70014 35915 ft 349 kts 258°
2026-05-06 16:35 38.54973 -80.76043 35916 ft 349 kts 259°
2026-05-06 16:35 38.53806 -80.82057 35919 ft 349 kts 259°
2026-05-06 16:36 38.52640 -80.88066 35918 ft 348 kts 259°
2026-05-06 16:36 38.51476 -80.94066 35925 ft 348 kts 258°
2026-05-06 16:37 38.50301 -81.00062 35926 ft 348 kts 259°
2026-05-06 16:37 38.49125 -81.06049 35928 ft 347 kts 259°
2026-05-06 16:38 38.47950 -81.12035 35932 ft 347 kts 259°
2026-05-06 16:38 38.46783 -81.17969 35931 ft 347 kts 259°
2026-05-06 16:39 38.45607 -81.23930 35936 ft 346 kts 258°
2026-05-06 16:39 38.44423 -81.29882 35937 ft 346 kts 259°
2026-05-06 16:40 38.43238 -81.35834 35936 ft 346 kts 258°
2026-05-06 16:40 38.42056 -81.41777 35936 ft 345 kts 259°
2026-05-06 16:41 38.40875 -81.47699 35932 ft 345 kts 258°
2026-05-06 16:41 38.39686 -81.53623 35931 ft 345 kts 258°
2026-05-06 16:42 38.38493 -81.59539 35930 ft 345 kts 258°
2026-05-06 16:42 38.37302 -81.65460 35930 ft 345 kts 258°
2026-05-06 16:43 38.36102 -81.71377 35931 ft 345 kts 258°
2026-05-06 16:43 38.34894 -81.77240 35924 ft 345 kts 256°
2026-05-06 16:44 38.33289 -81.83018 35928 ft 346 kts 255°
2026-05-06 16:44 38.31672 -81.88791 35929 ft 346 kts 255°
2026-05-06 16:45 38.30055 -81.94559 35928 ft 346 kts 255°
2026-05-06 16:45 38.28437 -82.00329 35930 ft 346 kts 255°
2026-05-06 16:46 38.26812 -82.06096 35927 ft 347 kts 254°
2026-05-06 16:46 38.25182 -82.11875 35933 ft 347 kts 255°
2026-05-06 16:47 38.23554 -82.17650 35938 ft 347 kts 255°
2026-05-06 16:47 38.21921 -82.23417 35942 ft 346 kts 255°
2026-05-06 16:48 38.20283 -82.29176 35951 ft 346 kts 254°
2026-05-06 16:48 38.18644 -82.34924 35954 ft 346 kts 254°
2026-05-06 16:49 38.17015 -82.40637 35955 ft 346 kts 254°
2026-05-06 16:49 38.15371 -82.46382 35955 ft 346 kts 254°
2026-05-06 16:50 38.13732 -82.52118 35953 ft 345 kts 254°
2026-05-06 16:50 38.12087 -82.57850 35955 ft 345 kts 254°
2026-05-06 16:51 38.10439 -82.63581 35960 ft 345 kts 254°
2026-05-06 16:51 38.08789 -82.69304 35959 ft 345 kts 254°
2026-05-06 16:52 38.07140 -82.75019 35963 ft 345 kts 254°
2026-05-06 16:52 38.05487 -82.80723 35964 ft 345 kts 253°
2026-05-06 16:53 38.03829 -82.86432 35968 ft 344 kts 253°
2026-05-06 16:53 38.02185 -82.92082 35970 ft 344 kts 254°
2026-05-06 16:54 38.00537 -82.97768 35971 ft 343 kts 253°
2026-05-06 16:54 37.98877 -83.03428 35570 ft 342 kts 254°
2026-05-06 16:54 37.98041 -83.06269 34809 ft 346 kts 253°
2026-05-06 16:55 37.97201 -83.09142 34014 ft 350 kts 253°
2026-05-06 16:55 37.96353 -83.12051 33163 ft 354 kts 252°
2026-05-06 16:55 37.95494 -83.14998 32358 ft 358 kts 252°
2026-05-06 16:55 37.94626 -83.17971 32077 ft 362 kts 252°
2026-05-06 16:56 37.93745 -83.20977 31956 ft 364 kts 252°
2026-05-06 16:56 37.91966 -83.27024 31982 ft 367 kts 251°
2026-05-06 16:57 37.90179 -83.33077 31981 ft 367 kts 251°
2026-05-06 16:57 37.88390 -83.39090 31981 ft 367 kts 251°
2026-05-06 16:58 37.86594 -83.45139 31988 ft 367 kts 251°
2026-05-06 16:58 37.84805 -83.51181 31990 ft 366 kts 251°
2026-05-06 16:59 37.83018 -83.57207 31991 ft 366 kts 251°
2026-05-06 16:59 37.81212 -83.63236 31991 ft 365 kts 251°
2026-05-06 17:00 37.79406 -83.69245 31998 ft 365 kts 251°
2026-05-06 17:00 37.77603 -83.75245 31996 ft 365 kts 251°
2026-05-06 17:01 37.75802 -83.81237 32003 ft 364 kts 251°
2026-05-06 17:01 37.74001 -83.87228 32008 ft 365 kts 251°
2026-05-06 17:02 37.72198 -83.93211 32008 ft 364 kts 251°
2026-05-06 17:02 37.70403 -83.99159 31922 ft 359 kts 251°
2026-05-06 17:02 37.69518 -84.02093 31228 ft 359 kts 251°
2026-05-06 17:03 37.68624 -84.05049 30420 ft 362 kts 251°
2026-05-06 17:03 37.67716 -84.08037 30121 ft 366 kts 251°
2026-05-06 17:03 37.66796 -84.11056 29986 ft 370 kts 251°
2026-05-06 17:04 37.64251 -84.16732 30023 ft 378 kts 234°
2026-05-06 17:04 37.60314 -84.21211 30017 ft 382 kts 227°
2026-05-06 17:05 37.56282 -84.25603 30014 ft 383 kts 228°
2026-05-06 17:05 37.52271 -84.30000 30018 ft 383 kts 228°
2026-05-06 17:06 37.48248 -84.34403 30019 ft 383 kts 227°
2026-05-06 17:06 37.44215 -84.38793 30010 ft 383 kts 227°
2026-05-06 17:07 37.40200 -84.43152 29994 ft 384 kts 227°
2026-05-06 17:07 37.36143 -84.47550 29990 ft 385 kts 227°
2026-05-06 17:08 37.32095 -84.51951 29986 ft 385 kts 227°
2026-05-06 17:08 37.28033 -84.56353 29983 ft 386 kts 227°
2026-05-06 17:09 37.23953 -84.60757 29979 ft 387 kts 227°
2026-05-06 17:09 37.19864 -84.65171 29972 ft 388 kts 227°
2026-05-06 17:10 37.15773 -84.69594 29971 ft 389 kts 227°
2026-05-06 17:10 37.11697 -84.73990 29968 ft 389 kts 227°
2026-05-06 17:10 37.09650 -84.76183 29623 ft 386 kts 227°
2026-05-06 17:11 37.07603 -84.78375 28716 ft 389 kts 227°
2026-05-06 17:11 37.05542 -84.80584 27692 ft 392 kts 227°
2026-05-06 17:11 37.03485 -84.82854 26577 ft 393 kts 231°
2026-05-06 17:11 37.01785 -84.85496 25481 ft 388 kts 242°
2026-05-06 17:12 37.00399 -84.88378 24613 ft 385 kts 243°
2026-05-06 17:12 36.99018 -84.91231 23787 ft 381 kts 242°
2026-05-06 17:12 36.97645 -84.94047 22977 ft 378 kts 242°
2026-05-06 17:12 36.96280 -84.96836 22212 ft 374 kts 242°
2026-05-06 17:13 36.94921 -84.99614 21994 ft 375 kts 242°
2026-05-06 17:13 36.93565 -85.02399 22002 ft 376 kts 242°
2026-05-06 17:13 36.92206 -85.05192 22008 ft 376 kts 242°
2026-05-06 17:13 36.90845 -85.07984 22007 ft 376 kts 242°
2026-05-06 17:14 36.89481 -85.10772 22007 ft 376 kts 242°
2026-05-06 17:14 36.88115 -85.13565 22013 ft 377 kts 242°
2026-05-06 17:14 36.86753 -85.16355 22018 ft 376 kts 242°
2026-05-06 17:14 36.85392 -85.19146 22016 ft 377 kts 242°
2026-05-06 17:15 36.84025 -85.21942 22013 ft 378 kts 242°
2026-05-06 17:15 36.82657 -85.24736 22007 ft 378 kts 242°
2026-05-06 17:15 36.81286 -85.27538 22007 ft 378 kts 242°
2026-05-06 17:15 36.79912 -85.30333 22008 ft 378 kts 242°
2026-05-06 17:16 36.78536 -85.33128 22004 ft 378 kts 242°
2026-05-06 17:16 36.77157 -85.35919 22004 ft 378 kts 242°
2026-05-06 17:16 36.75775 -85.38713 22007 ft 379 kts 242°
2026-05-06 17:16 36.74396 -85.41513 21997 ft 378 kts 242°
2026-05-06 17:17 36.73057 -85.44302 21443 ft 371 kts 243°
2026-05-06 17:17 36.72198 -85.46132 20944 ft 368 kts 243°
2026-05-06 17:17 36.70494 -85.49803 19903 ft 363 kts 243°
2026-05-06 17:17 36.69662 -85.51598 19392 ft 360 kts 243°
2026-05-06 17:18 36.68416 -85.54280 18646 ft 356 kts 243°
2026-05-06 17:18 36.67178 -85.56927 17915 ft 352 kts 243°
2026-05-06 17:18 36.65944 -85.59548 17183 ft 350 kts 243°
2026-05-06 17:18 36.64717 -85.62145 16478 ft 346 kts 243°
2026-05-06 17:19 36.63501 -85.64715 15764 ft 342 kts 243°
2026-05-06 17:19 36.62298 -85.67253 15041 ft 339 kts 243°
2026-05-06 17:19 36.61108 -85.69763 14453 ft 332 kts 243°
2026-05-06 17:19 36.59965 -85.72165 14247 ft 314 kts 243°
2026-05-06 17:20 36.58881 -85.74451 13996 ft 300 kts 243°
2026-05-06 17:20 36.57834 -85.76663 13746 ft 295 kts 243°
2026-05-06 17:20 36.56801 -85.78849 13503 ft 292 kts 243°
2026-05-06 17:20 36.55773 -85.81019 13251 ft 290 kts 243°
2026-05-06 17:21 36.54751 -85.83179 13001 ft 290 kts 243°
2026-05-06 17:21 36.53744 -85.85302 12753 ft 288 kts 243°
2026-05-06 17:21 36.52727 -85.87443 12501 ft 287 kts 243°
2026-05-06 17:21 36.51713 -85.89570 12250 ft 285 kts 243°
2026-05-06 17:22 36.50699 -85.91691 11999 ft 285 kts 243°
2026-05-06 17:22 36.49689 -85.93801 11971 ft 283 kts 243°
2026-05-06 17:22 36.48675 -85.95916 12005 ft 285 kts 243°
2026-05-06 17:22 36.47665 -85.98030 11962 ft 285 kts 243°
2026-05-06 17:23 36.46654 -86.00143 11706 ft 284 kts 243°
2026-05-06 17:23 36.45645 -86.02253 11455 ft 284 kts 242°
2026-05-06 17:23 36.44637 -86.04366 11199 ft 284 kts 242°
2026-05-06 17:23 36.43628 -86.06484 10952 ft 286 kts 242°
2026-05-06 17:24 36.42612 -86.08610 10699 ft 286 kts 242°
2026-05-06 17:24 36.41590 -86.10741 10452 ft 288 kts 242°
2026-05-06 17:24 36.40562 -86.12884 10196 ft 290 kts 242°
2026-05-06 17:24 36.39532 -86.15032 9953 ft 286 kts 242°
2026-05-06 17:25 36.38555 -86.17064 9996 ft 263 kts 242°
2026-05-06 17:25 36.37626 -86.18991 10018 ft 259 kts 242°
2026-05-06 17:25 36.36707 -86.20905 10014 ft 257 kts 242°
2026-05-06 17:25 36.35793 -86.22811 10006 ft 257 kts 242°
2026-05-06 17:26 36.34880 -86.24715 10010 ft 257 kts 242°
2026-05-06 17:26 36.33965 -86.26616 10003 ft 257 kts 242°
2026-05-06 17:26 36.33049 -86.28518 10004 ft 257 kts 242°
2026-05-06 17:26 36.32131 -86.30424 10005 ft 257 kts 242°
2026-05-06 17:27 36.31217 -86.32324 10011 ft 257 kts 242°
2026-05-06 17:27 36.30302 -86.34221 10003 ft 257 kts 242°
2026-05-06 17:27 36.29380 -86.36121 10008 ft 257 kts 242°
2026-05-06 17:27 36.28472 -86.38002 10011 ft 258 kts 242°
2026-05-06 17:28 36.27551 -86.39912 10004 ft 258 kts 242°
2026-05-06 17:28 36.26632 -86.41816 9954 ft 258 kts 242°
2026-05-06 17:28 36.25712 -86.43718 9815 ft 256 kts 242°
2026-05-06 17:28 36.24795 -86.45609 9691 ft 257 kts 242°
2026-05-06 17:29 36.23885 -86.47487 9564 ft 249 kts 242°
2026-05-06 17:29 36.23011 -86.49286 9438 ft 240 kts 242°
2026-05-06 17:29 36.22036 -86.50942 9317 ft 240 kts 229°
2026-05-06 17:29 36.20657 -86.52132 9188 ft 248 kts 211°
2026-05-06 17:30 36.19012 -86.52839 9073 ft 252 kts 204°
2026-05-06 17:30 36.17355 -86.53506 8994 ft 246 kts 205°
2026-05-06 17:30 36.15776 -86.54152 8997 ft 233 kts 205°
2026-05-06 17:30 36.14251 -86.54772 8995 ft 227 kts 205°
2026-05-06 17:31 36.12787 -86.55345 8995 ft 215 kts 205°
2026-05-06 17:31 36.11374 -86.55887 8995 ft 212 kts 205°
2026-05-06 17:31 36.09970 -86.56418 9000 ft 211 kts 205°
2026-05-06 17:31 36.08570 -86.56945 8916 ft 213 kts 204°
2026-05-06 17:32 36.07106 -86.57502 8333 ft 227 kts 204°
2026-05-06 17:32 36.05552 -86.58089 7707 ft 240 kts 203°
2026-05-06 17:32 36.03912 -86.58701 7048 ft 252 kts 202°
2026-05-06 17:32 36.02194 -86.59333 6359 ft 262 kts 202°
2026-05-06 17:33 36.00460 -86.59967 5751 ft 261 kts 202°
2026-05-06 17:33 35.98747 -86.60587 5350 ft 252 kts 201°
2026-05-06 17:33 35.97094 -86.61186 4946 ft 244 kts 201°
2026-05-06 17:33 35.95491 -86.61766 4550 ft 236 kts 200°
2026-05-06 17:34 35.94029 -86.62603 4142 ft 230 kts 223°
2026-05-06 17:34 35.93067 -86.64134 3984 ft 227 kts 247°
2026-05-06 17:34 35.92864 -86.66043 3987 ft 223 kts 279°
2026-05-06 17:34 35.93509 -86.67738 4007 ft 220 kts 302°
2026-05-06 17:35 35.94437 -86.69232 3996 ft 219 kts 305°
2026-05-06 17:35 35.95387 -86.70701 4000 ft 218 kts 306°
2026-05-06 17:35 35.96418 -86.72059 3791 ft 219 kts 319°
2026-05-06 17:36 35.99319 -86.73070 3220 ft 220 kts
2026-05-06 17:36 36.00800 -86.72610 2928 ft 220 kts 17°
2026-05-06 17:36 36.02238 -86.72031 2667 ft 215 kts 18°
2026-05-06 17:36 36.03637 -86.71471 2489 ft 204 kts 19°
2026-05-06 17:37 36.04938 -86.70951 2283 ft 192 kts 19°
2026-05-06 17:37 36.06200 -86.70444 1825 ft 193 kts 20°
2026-05-06 17:37 36.07469 -86.69922 1433 ft 187 kts 20°
2026-05-06 17:37 36.08671 -86.69416 1068 ft 179 kts 19°
2026-05-06 17:38 36.09814 -86.68972 735 ft 166 kts 13°
2026-05-06 17:38 36.10844 -86.68587 602 ft 139 kts 20°
2026-05-06 17:38 36.11641 -86.68264 583 ft 102 kts 17°
2026-05-06 17:38 36.12138 -86.68065 580 ft 44 kts 19°
2026-05-06 17:39 36.12319 -86.67984 582 ft 17 kts 31°
2026-05-06 17:39 36.12318 -86.67842 584 ft 15 kts 110°
2026-05-06 17:39 36.12319 -86.67725 583 ft 15 kts 36°
2026-05-06 17:39 36.12422 -86.67681 583 ft 17 kts 19°
2026-05-06 17:40 36.12526 -86.67604 582 ft 16 kts 44°
2026-05-06 17:40 36.12608 -86.67507 579 ft 17 kts 36°
2026-05-06 17:40 36.12700 -86.67441 578 ft 13 kts 30°
2026-05-06 17:40 36.12783 -86.67358 576 ft 17 kts 44°
2026-05-06 17:41 36.12859 -86.67267 572 ft 10 kts 43°
2026-05-06 17:41 36.12928 -86.67284 569 ft 14 kts 323°
2026-05-06 17:41 36.12997 -86.67348 567 ft 11 kts 326°
2026-05-06 17:41 36.13077 -86.67377 567 ft 14 kts
2026-05-06 17:42 36.13168 -86.67361 574 ft 10 kts 31°
2026-05-06 17:42 36.13182 -86.67269 567 ft 10 kts 89°
2026-05-06 17:42 36.13224 -86.67210 567 ft 8 kts 46°
2026-05-06 17:42 36.13233 -86.67198 567 ft 0 kts 46°